Regional Weather Roundup
Issued by NWS

Home | Current Version | Previous Version | Text Only | Print | Product List | Glossary On
Versions: 1 2 3 4 5 6 7 8 9 10 11 12 13 14 15 16 17 18 19 20 21 22 23 24 25 26 27 28 29 30 31 32 33 34 35 36 37 38 39 40 41 42 43 44 45 46 47 48 49 50
000
ASUS44 KJAN 230710
RWRMS

MISSISSIPPI HOURLY WEATHER ROUNDUP
NATIONAL WEATHER SERVICE JACKSON MS
200 AM CDT MON APR 23 2018

NOTE: "FAIR: INDICATES FEW OR NO CLOUDS BELOW 12,000 FEET WITH NO
SIGNIFICANT WEATHER AND/OR OBSTRUCTIONS TO VISIBILITY.

MSZ001>002-007>008-010>013-018>021-025>028-034>036-230800-
NORTHWEST MISSISSIPPI

CITY           SKY/WX    TMP DP  RH WIND       PRES   REMARKS
BATESVILLE       N/A    N/A N/A N/A MISG        N/A
CLARKSDALE     CLOUDY    59  59 100 W8        29.85S
CLEVELAND      CLOUDY    58  57  99 W8        29.87F
GREENWOOD      CLOUDY    58  55  90 SW7       29.87S
GREENVILLE     CLOUDY    56  51  84 W10       29.88F
TUNICA           N/A     54  52  94 W13       29.84F
WINONA         CLOUDY    57  57 100 SW5       29.87S
$$

MSZ003>006-009-014>017-022>024-029>033-037>039-230800-
NORTHEAST MISSISSIPPI

CITY           SKY/WX    TMP DP  RH WIND       PRES   REMARKS
ABERDEEN         N/A     61  61 100 S10       29.85S
COLUMBUS AFB   CLOUDY    60  60 100 S7        29.84S
CORINTH        CLOUDY    59  57  94 CALM      29.79R
GOLDN TRIANGLE CLOUDY    60  58  92 SW7       29.86S
STARKVILLE     PTSUNNY   59  57  94 SW6       29.87S
TUPELO         MOCLDY    60  57  89 S7        29.81S
$$

MSZ040-058-230800-
CENTRAL MISSISSIPPI

CITY           SKY/WX    TMP DP  RH WIND       PRES   REMARKS
JACKSON INTL   CLOUDY    56  51  84 W7        29.91F
JACKSON HAWKNS FAIR      54  51  90 W3        29.92F
MADISON        PTSUNNY   54  52  94 SW6       29.91F
MERIDIAN KEY   FAIR      59  56  89 S5        29.90F
MERIDIAN NAS   CLOUDY    61  58  90 W8        29.90S
RAYMOND        FAIR      54  52  94 CALM      29.92F
VICKSBURG VKS  CLOUDY    57  50  77 VRB5      29.94S
$$

MSZ059>079-230800-
SOUTH MISSISSIPPI

CITY           SKY/WX    TMP DP  RH WIND       PRES   REMARKS
COLUMBIA       FAIR      55  52  88 CALM      29.98F
HATTIESBURG    CLOUDY    60  57  89 NW8       29.94S
LAUREL         FAIR      57  57 100 W5        29.93S
MCCOMB         FAIR      53  49  86 W5        29.95F
NATCHEZ        FAIR      50  48  93 CALM      29.96F
PINE BELT      FAIR      57  54  89 W8G16     29.94S
$$

MSZ080>082-230800-
COASTAL MISSISSIPPI

CITY           SKY/WX    TMP DP  RH WIND       PRES   REMARKS
BILOXI         FAIR      64  61  88 NW3       29.92S
PASCAGOULA     MOCLDY    62  60  93 CALM      29.91F
GULFPORT       FAIR      63  59  87 W8        29.92F
$$

LAZ007>009-015>016-023>026-230800-
NORTHEAST LOUISIANA

CITY           SKY/WX    TMP DP  RH WIND       PRES   REMARKS
BASTROP        CLOUDY    54  52  94 W8        29.94S
TALLULAH/VBURG CLOUDY    57  52  83 W5        29.93F
VIDALIA        FAIR      53  51  94 CALM      29.96S
$$



USA.gov is the U.S. government's official web portal to all federal, state and local government web resources and services.